Погода в Турмышах

Россия / Чувашская Республика     55°30′53″N   47°39′52″E
темп.,
°C
ветер,
м/с
пор.,
м/с
влажн.,
%
обл.,
%
осадки,
мм/ч
давл.,
гПа
погр.,
м
19 июня, сб
сб1900:00+12зюз22765 0.0 102715
03:00+11зюз337110 0.0 102739
06:00+15зюз4978100 0.0 1026227
09:00+20з686722 0.0 1025572
12:00+23з79605 0.0 10241071
15:00+25з710655 0.0 10221396
18:00+23з611730 0.0 1022710
21:00+18зюз412890 0.0 1022243
20 июня, вс
вс2000:00+17з411940 0.0 1022194
03:00+16з48941 0.0 1023145
06:00+19зсз48855 0.0 1023213
09:00+24зсз56715 0.0 1022517
12:00+27зсз45605 0.0 10221080
15:00+27зсз44584 0.0 10221399
18:00+25з36735 0.0 1021249
21:00+20з33895 0.0 102235
21 июня, пн
пн2100:00+19з229144 0.0 102217
03:00+19з238965 0.0 102245
06:00+21з34829 0.0 1023164
09:00+25з34665 0.0 1023551
12:00+28з345670 0.0 10221314
15:00+28зсз345394 0.0 10221627
18:00+26сз34727 0.0 1021213
21:00+21з22885 0.0 102220
22 июня, вт
вт2200:00+20з22902 0.0 102229
03:00+19з239146 0.0 102330
06:00+22зсз248369 0.0 1023158
09:00+26зсз346923 0.0 1023552
12:00+28зсз345673 0.0 10231374
15:00+29зсз34520 0.0 10221605
18:00+27зсз34684 0.0 1022142
21:00+22зсз33823 0.0 102222
23 июня, ср
ср2300:00+20зсз22880 0.0 102218
03:00+19з33890 0.0 102332
06:00+22зсз34800 0.0 1023150
09:00+27сз34660 0.0 1023568
12:00+29сз34550 0.0 10221483
15:00+30сз33495 0.0 10221871
18:00+28зюз23650 0.0 102190
21:00+22зсз22790 0.0 102112